STARLINK-31046, 58552

Orbit data source: Space-Track

STARLINK-31046, 58552 is a payload satellite owned by SpaceX/Seattle (US) in LEO that was launched on Fri, 08 Dec 2023 UTC via an FALCON 9 launch vehicle from the Air Force Western Test Range (AFWTR). Payload-class satellites include a variety of spacecraft equipped with specific instruments for various scientific and technological missions. These include communications satellites like Starlink; space stations such as the ISS; scientific satellites like the Hubble; Earth observation satellites from companies like Planet Labs, Umbra, and HawkEye 360; GPS; miniature CubeSats for education and research; and military/defense satellites.

Loading next visibility...
Identifier
58552, 2023-192X
Orbit
LEO
Country
Flag of USUS
Related business
Manufacturer
SpaceX/Seattle
Mission
Operational Commercial Communications
Bus & Motor
STARLINK V2M, Unknown motor
Mass
730 kg wet, ~700 kg dry
Launch date (UTC)
2023-12-08 (3 years ago)
Launch vehicle
FALCON 9
Launch site
Air Force Western Test Range (AFWTR)
Object type
Payload
Rocket body
Debris
Shape & HBR
Box + 2 Pan, 17.7 m
Radar Cross Section
33.884 m², Large (>1 m²)

Expand to show TLE details & history
Last TLE update: 3 days ago

TLE from 3 days ago
0 STARLINK-31046
1 58552U 23192X   26170.78515654 -.00000072  00000-0  90057-5 0  9995
2 58552  53.1615 307.3131 0001213  85.4983 274.6159 15.34394244141638
Epoch: 2026-06-19T18:50Z
TLE epoch observation values (Epoch: 2026-06-19T18:50:37.525Z)
Latitude
0.00007°
Longitude
116.64764°
Altitude
463.555 km
Speed
7.636 km/s
True Right ascension
20h 29m 15s
True Declination
0° 00' 00"
Sunlit
Object was in full shadow at epoch
Visualization orbit readout
Latitude
Unknown
Longitude
Unknown
Altitude
Unknown
Speed
Unknown
Apparent Right ascension
Unknown
Apparent Declination
Unknown
Sunlit
N/A
Visualization observer readout
Local Sidereal Time
21:31:27
Azimuth
Unknown
Elevation
Unknown
Doppler factor
Unknown
Orbital elements
Apogee altitude
463.807 km
Perigee altitude
462.147 km
Semi-major axis
6,841.114 km
Eccentricity
0.00012
Inclination
53.1615°
RAAN
307.3131°
Arg. of periapsis
85.4983°
True anomaly
274.60204°
Mean anomaly
274.6159°
Eccentric anomaly
274.60897°
Mean motion
3.83577 °/min
Orbital period
93.85 mins
BSTAR
0.0000090057
Loading maneuver chart data...
Computing Atmospheric mass density...
Loading historical data...
Loading historical data...
Loading historical data...
Loading historical data...
Loading historical data...
Loading historical data...
Loading historical data...

Documentation

Showing up to 5 results
|